Regional Weather Roundup
Issued by NWS

Home | Current Version | Previous Version | Text Only | Print | Product List | Glossary On
Versions: 1 2 3 4 5 6 7 8 9 10 11 12 13 14 15 16 17 18 19 20 21 22 23 24 25 26 27 28 29 30 31 32 33 34 35 36 37 38 39 40 41 42 43 44 45 46 47 48 49 50
000
ASUS44 KOUN 191100
RWROK

WEATHER ROUNDUP FOR OKLAHOMA
NATIONAL WEATHER SERVICE NORMAN OK
500 AM CST THU JAN 19 2017

NOTE: "FAIR" INDICATES FEW OR NO CLOUDS BELOW 12,000 FEET WITH NO
      SIGNIFICANT WEATHER AND/OR OBSTRUCTIONS TO VISIBILITY.

OKZ001>007-009>012-014-015-017-191200-
NORTHWEST OKLAHOMA AND THE PANHANDLE

CITY           SKY/WX    TMP DP  RH WIND       PRES   REMARKS
GAGE           CLOUDY    44  42  93 S17       29.68F
GUYMON         CLEAR     29  27  92 CALM      29.61F
$$

OKZ016-021>023-033>039-044-045-191200-
SOUTHWEST OKLAHOMA

CITY           SKY/WX    TMP DP  RH WIND       PRES   REMARKS
LAWTON/REGL    FOG       43  42  97 SE3       29.80F VSB 1/2
LAWTON/FT SILL FOG       43  43 100 SE5       29.79F VSB 1/2
FREDERICK      CLEAR     41  40  96 S7        29.75F
CLINTON        FOG       43  42  97 S15       29.74F VSB 1/4
HOBART         FOG       43  42  97 S16       29.75F VSB 1
ALTUS AFB      PTCLDY    39  37  93 SE9       29.75F WCI  33
$$

OKZ018>020-024>031-191200-
CENTRAL OKLAHOMA

CITY           SKY/WX    TMP DP  RH WIND       PRES   REMARKS
OKLAHOMA CITY  CLOUDY    47  46  97 S13       29.81F
OKC/WILEY POST CLOUDY    48  47  96 S14       29.81F
STILLWATER     CLOUDY    48  45  89 S8        29.81F
GUTHRIE        CLOUDY    49  46  90 S8        29.81S
$$

OKZ008-013-054>072-191200-
NORTHEAST OKLAHOMA

CITY           SKY/WX    TMP DP  RH WIND       PRES   REMARKS
TULSA          CLOUDY    46  46 100 SE6       29.86F FOG
TULSA/JONES    CLOUDY    47  46  97 CALM      29.86F FOG
PONCA CITY     CLOUDY    48  44  86 S6        29.81F
BARTLESVILLE   CLOUDY    45  44  97 S6        29.86F FOG
MUSKOGEE       CLOUDY    45  45 100 S6        29.88F
$$

OKZ032-040>043-046>053-073>077-191200-
SOUTH CENTRAL/SOUTHEAST OKLAHOMA

CITY           SKY/WX    TMP DP  RH WIND       PRES   REMARKS
MCALESTER      CLOUDY    50  47  89 S6        29.86F
$$





USA.gov is the U.S. government's official web portal to all federal, state and local government web resources and services.